Location: Gugi
(45.4667°N, 11.1000°E)
Time: 15:57:57
(UTC+00:00)

SKYMED 3 - Pass Details

Date: 17 November 2019
Orbit: 621 x 623 km, 97.9° (Epoch: 15 December)

Event Time Altitude Azimuth Distance (km) Brightness Sun altitude
Exits shadow 17:20:46 - 15° (NNE) 2,308 7.2 -16.9°
Reaches altitude 10° 17:21:31 10° 16° (NNE) 2,003 6.9 -17.0°
Maximum altitude 17:25:52 75° 102° (ESE) 649 4.4 -17.8°
Drops below altitude 10° 17:30:11 10° 188° (S) 1,985 7.4 -18.5°
Sets 17:32:22 0° 190° (S) 2,886 8.2 -18.9°
